TimeEEST,TemperatureF,Dew PointF,Humidity,Sea Level PressureIn,VisibilityMPH,Wind Direction,Wind SpeedMPH,Gust SpeedMPH,PrecipitationIn,Events,Conditions,WindDirDegrees,DateUTC
12:00 AM,76,58,44,29.93,6,WNW,3.5,,,,,300,2013-07-16 21:00:00
12:20 AM,75.2,59.0,57,29.92,-9999.0,Variable,3.5,-,N/A,,Clear,0,2013-07-16 21:20:00
12:50 AM,75.2,59.0,57,29.92,-9999.0,Calm,Calm,-,N/A,,Clear,0,2013-07-16 21:50:00
1:20 AM,73.4,59.0,61,29.92,-9999.0,Calm,Calm,-,N/A,,Clear,0,2013-07-16 22:20:00
1:50 AM,73.4,59.0,61,29.92,-9999.0,Calm,Calm,-,N/A,,Clear,0,2013-07-16 22:50:00
2:20 AM,73.4,59.0,61,29.92,-9999.0,Calm,Calm,-,N/A,,Clear,0,2013-07-16 23:20:00
2:50 AM,71.6,59.0,64,29.92,6.2,Calm,Calm,-,N/A,,Scattered Clouds,0,2013-07-16 23:50:00
3:00 AM,72,60,56,29.93,6,Calm,Calm,,,,Partly Cloudy,,2013-07-17 00:00:00
3:20 AM,71.6,60.8,69,29.92,6.2,Calm,Calm,-,N/A,,Scattered Clouds,0,2013-07-17 00:20:00
3:50 AM,71.6,60.8,69,29.92,-9999.0,Calm,Calm,-,N/A,,Clear,0,2013-07-17 00:50:00
4:20 AM,71.6,60.8,69,29.92,-9999.0,Calm,Calm,-,N/A,,Clear,0,2013-07-17 01:20:00
4:50 AM,69.8,60.8,73,29.92,-9999.0,Calm,Calm,-,N/A,,Clear,0,2013-07-17 01:50:00
5:20 AM,69.8,60.8,73,29.92,-9999.0,Calm,Calm,-,N/A,,Clear,0,2013-07-17 02:20:00
5:50 AM,69.8,60.8,73,29.92,6.2,Calm,Calm,-,N/A,,Scattered Clouds,0,2013-07-17 02:50:00
6:00 AM,70,60,63,29.93,6,Calm,Calm,,,,Scattered Clouds,,2013-07-17 03:00:00
6:20 AM,69.8,60.8,73,29.92,6.2,Calm,Calm,-,N/A,,Scattered Clouds,0,2013-07-17 03:20:00
6:50 AM,69.8,60.8,73,29.92,6.2,Calm,Calm,-,N/A,,Scattered Clouds,0,2013-07-17 03:50:00
7:20 AM,69.8,60.8,73,29.92,6.2,Calm,Calm,-,N/A,,Scattered Clouds,0,2013-07-17 04:20:00
7:50 AM,69.8,60.8,73,29.92,6.2,Calm,Calm,-,N/A,,Scattered Clouds,0,2013-07-17 04:50:00
8:20 AM,71.6,60.8,69,29.95,6.2,Calm,Calm,-,N/A,,Scattered Clouds,0,2013-07-17 05:20:00
8:50 AM,73.4,62.6,69,29.95,6.2,Calm,Calm,-,N/A,,Scattered Clouds,0,2013-07-17 05:50:00
9:00 AM,73,63,62,29.95,12,Calm,Calm,,,,Partly Cloudy,,2013-07-17 06:00:00
9:20 AM,73.4,62.6,69,29.95,6.2,Calm,Calm,-,N/A,,Scattered Clouds,0,2013-07-17 06:20:00
9:50 AM,77.0,64.4,65,29.95,6.2,ESE,4.6,-,N/A,,Scattered Clouds,110,2013-07-17 06:50:00
10:20 AM,78.8,64.4,61,29.95,6.2,East,3.5,-,N/A,,Scattered Clouds,100,2013-07-17 07:20:00
10:50 AM,80.6,59.0,48,29.95,6.2,SSE,5.8,-,N/A,,Partly Cloudy,150,2013-07-17 07:50:00
11:20 AM,82.4,60.8,48,29.95,6.2,SSE,6.9,-,N/A,,Partly Cloudy,160,2013-07-17 08:20:00
11:50 AM,82.4,59.0,45,29.95,6.2,SSE,5.8,-,N/A,,Partly Cloudy,150,2013-07-17 08:50:00
12:00 PM,83,59,34,29.97,12,SSE,11.2,,,,Scattered Clouds,150,2013-07-17 09:00:00
12:20 PM,84.2,60.8,45,29.98,6.2,South,8.1,-,N/A,,Partly Cloudy,170,2013-07-17 09:20:00
12:50 PM,84.2,60.8,45,29.98,6.2,ESE,6.9,-,N/A,,Partly Cloudy,120,2013-07-17 09:50:00
1:20 PM,84.2,60.8,45,29.98,6.2,SSE,6.9,-,N/A,,Partly Cloudy,150,2013-07-17 10:20:00
1:50 PM,84.2,59.0,42,29.98,6.2,SE,6.9,-,N/A,,Partly Cloudy,140,2013-07-17 10:50:00
2:20 PM,86.0,59.0,40,29.98,6.2,SSE,6.9,-,N/A,,Partly Cloudy,150,2013-07-17 11:20:00
2:50 PM,87.8,57.2,35,29.95,6.2,South,5.8,-,N/A,,Partly Cloudy,170,2013-07-17 11:50:00
3:00 PM,87,58,27,29.97,12,South,11.2,,,,Scattered Clouds,170,2013-07-17 12:00:00
3:20 PM,87.8,57.2,35,29.95,6.2,South,5.8,-,N/A,,Partly Cloudy,190,2013-07-17 12:20:00
3:50 PM,87.8,57.2,35,29.95,6.2,WSW,4.6,-,N/A,,Partly Cloudy,240,2013-07-17 12:50:00
4:20 PM,87.8,57.2,35,29.95,6.2,WSW,8.1,-,N/A,,Partly Cloudy,240,2013-07-17 13:20:00
4:50 PM,86.0,60.8,43,29.95,6.2,SSW,10.4,-,N/A,,Partly Cloudy,210,2013-07-17 13:50:00
5:20 PM,86.0,60.8,43,29.95,6.2,SSW,9.2,-,N/A,,Partly Cloudy,200,2013-07-17 14:20:00
5:50 PM,89.6,60.8,38,29.95,6.2,West,9.2,-,N/A,,Partly Cloudy,270,2013-07-17 14:50:00
6:20 PM,89.6,60.8,38,29.95,6.2,West,9.2,-,N/A,,Partly Cloudy,270,2013-07-17 15:20:00
6:50 PM,87.8,60.8,40,29.95,6.2,WNW,9.2,-,N/A,,Partly Cloudy,290,2013-07-17 15:50:00
7:20 PM,86.0,60.8,43,29.95,6.2,WNW,10.4,-,N/A,,Partly Cloudy,300,2013-07-17 16:20:00
7:50 PM,84.2,57.2,40,29.95,6.2,NW,11.5,-,N/A,,Partly Cloudy,320,2013-07-17 16:50:00
8:20 PM,82.4,57.2,42,29.95,6.2,WNW,9.2,-,N/A,,Partly Cloudy,300,2013-07-17 17:20:00
8:50 PM,82.4,57.2,42,29.95,6.2,NW,9.2,-,N/A,,Partly Cloudy,310,2013-07-17 17:50:00
9:00 PM,82,57,33,29.96,12,NW,9.2,,,,Scattered Clouds,310,2013-07-17 18:00:00
9:20 PM,80.6,57.2,45,29.95,6.2,NW,6.9,-,N/A,,Partly Cloudy,310,2013-07-17 18:20:00
9:50 PM,78.8,59.0,51,29.95,6.2,West,4.6,-,N/A,,Partly Cloudy,270,2013-07-17 18:50:00
10:20 PM,78.8,59.0,51,29.98,6.2,Calm,Calm,-,N/A,,Partly Cloudy,0,2013-07-17 19:20:00
10:50 PM,77.0,59.0,54,29.98,-9999.0,Calm,Calm,-,N/A,,Clear,0,2013-07-17 19:50:00
11:20 PM,75.2,57.2,53,29.98,-9999.0,Calm,Calm,-,N/A,,Clear,0,2013-07-17 20:20:00
11:50 PM,75.2,59.0,57,29.98,-9999.0,Calm,Calm,-,N/A,,Clear,0,2013-07-17 20:50:00